Orbital Elements at Epoch 2459200.5 (2020-Dec-17.0) TDB
Reference: JPL 36 (heliocentric ecliptic J2000)
Element | Value | Uncertainty (1-sigma) | Units |
e | .179162243845061 | 1.8588e-08 | |
a | 2.349147821405354 | 9.3094e-09 | au |
q | 1.928269226598634 | 4.1719e-08 | au |
i | 24.8720552857707 | 7.5377e-07 | deg |
node | 167.6297276920492 | 1.1543e-06 | deg |
peri | 359.1450184816901 | 1.9888e-06 | deg |
M | 110.5902311243019 | 2.6099e-06 | deg |
tp | 2458796.502934469062 (2019-Nov-09.00293447) | 8.0645e-06 | TDB |
period | 1315.115649117926 3.60 | 7.8174e-06 2.14e-08 | d yr |
n | .2737401841742656 | 1.6272e-09 | deg/d |
Q | 2.770026416212074 | 1.0977e-08 | au |
|
| | Orbit Determination Parameters
Additional Information
|